Location: Caltech
(34.1382°N, 118.1253°W)
Time: 05:38:55
(UTC-07:00)

Cosmos 1833 Rocket - Visible Passes

Search period start: 20 July 2017 00:00
Search period end: 30 July 2017 00:00
Orbit: 831 x 841 km, 71.0° (Epoch: 19 July)

Date Brightness Start Highest point End Pass type
(mag) Time Alt. Az. Time Alt. Az. Time Alt. Az.
20 Jul 3.1 21:30:07 10° NNW 21:35:39 60° WSW 21:39:53 17° S visible
21 Jul 3.0 21:13:24 10° NNW 21:18:59 66° WSW 21:24:04 12° S visible
22 Jul 2.9 20:56:42 10° NNW 21:02:19 72° WSW 21:07:53 10° SSE visible
23 Jul 2.8 20:40:00 10° NNW 20:45:38 79° WSW 20:51:15 10° SSE visible
24 Jul 2.8 20:23:17 10° NNW 20:28:57 87° WSW 20:34:35 10° SSE visible
26 Jul 5.5 21:37:48 10° W 21:38:42 10° W 21:39:36 10° WSW visible
27 Jul 5.4 21:20:10 10° WNW 21:22:04 12° W 21:23:59 10° WSW visible
28 Jul 5.4 21:02:56 10° WNW 21:05:27 13° W 21:07:58 10° SW visible
29 Jul 5.3 20:45:50 10° WNW 20:48:49 15° W 20:51:48 10° SW visible
